This demonstration page uses our WeatherBlox Daily Observations layout. Learn more.

Left ArrowRight Arrow

36.19886, -115.1175

Hourly Observations for September 5, 2020

Temp ( °F °C ) Dew Point ( °F °C ) Humidity (%) Winds ( mph kmh ) Pressure ( in mb ) Visibility ( mi km ) Precip ( " mm )
12:53 am 00:53 Clear 87 30.6 34 1.1 15 15 NNW 5 7 29.91 1013 10 16.0934 0 0
1:53 am 01:53 Clear 85 29.4 35 1.7 17 17 WNW 5 7 29.91 1013 10 16.0934 0 0
2:53 am 02:53 Clear 83 28.3 34 1.1 17 17 WNW 5 7 29.92 1013 10 16.0934 0 0
3:53 am 03:53 Clear 83 28.3 30 -1.1 15 15 NW 8 13 29.93 1013 10 16.0934 0 0
4:53 am 04:53 Clear 83 28.3 27 -2.8 13 13 NW 9 15 29.94 1014 10 16.0934 0 0
5:53 am 05:53 Clear 84 28.9 26 -3.3 12 12 NNW 10 17 29.97 1015 10 16.0934 0 0
6:53 am 06:53 Sunny 84 28.9 26 -3.3 12 12 NW 9 15 29.99 1016 10 16.0934 0 0
7:53 am 07:53 Sunny 89 31.7 32 0 13 13 Calm 30.02 1017 10 16.0934 0 0
8:53 am 08:53 Sunny 94 34.4 32 0 11 11 Calm 30.03 1017 10 16.0934 0 0
9:53 am 09:53 Sunny 97 36.1 30 -1.1 9 9 SE 6 9 30.04 1017 10 16.0934 0 0
10:53 am 10:53 Sunny 101 38.3 27 -2.8 7 7 SSE 7 11 30.04 1017 10 16.0934 0 0
11:53 am 11:53 Sunny 105 40.6 27 -2.8 6 6 VRB 3 6 30.03 1017 10 16.0934 0 0
12:53 pm 12:53 Sunny 106 41.1 24 -4.4 5 5 SE 3 6 30 1016 10 16.0934 0 0
1:53 pm 13:53 Sunny 110 43.3 25 -3.9 5 5 N 5 7 29.98 1015 10 16.0934 0 0
2:53 pm 14:53 Sunny 111 43.9 29 -1.7 6 6 Calm 29.95 1014 10 16.0934 0 0
3:53 pm 15:53 Sunny 113 45 30 -1.1 6 6 Calm 29.92 1013 10 16.0934 0 0
4:53 pm 16:53 Sunny 113 45 27 -2.8 5 5 E 7 11 29.91 1013 10 16.0934 0 0
5:53 pm 17:53 Sunny 111 43.9 29 -1.7 6 6 SE 5 7 29.9 1013 10 16.0934 0 0
6:53 pm 18:53 Sunny 109 42.8 32 0 7 7 Calm 29.9 1013 10 16.0934 0 0
7:53 pm 19:53 Clear 104 40 35 1.7 9 9 Calm 29.91 1013 10 16.0934 0 0
8:53 pm 20:53 Clear 100 37.8 39 3.9 12 12 WNW 7 11 29.93 1014 10 16.0934 0 0
9:53 pm 21:53 Clear 95 35 38 3.3 14 14 NNW 8 13 29.93 1014 10 16.0934 0 0
10:53 pm 22:53 Clear 96 35.6 35 1.7 12 12 NW 12 19 29.93 1013 10 16.0934 0 0
11:53 pm 23:53 Clear 94 34.4 33 0.6 12 12 WNW 7 11 29.93 1014 10 16.0934 0 0

Powered by AerisWeather